Flag for Germany Weather past 2 weeks in Stassfurt, Saxony-Anhalt, Germany

Now
68 °F

Light rain. Overcast.


Feels Like: 68 °F
Forecast: 54 / 88 °F
Wind: 2 mph from West

Location: Magdeburg

Current Time: Jul 6, 2015 at 3:53:02 AM

Latest Report: Jul 6, 2015 at 3:00 AM


Visibility: 5 mi

Pressure: 30.00 "Hg

Humidity: 95%

Dew point: 66 °F

Location of StassfurtLocation

Historic Weather in Stassfurt — Graph

°F

Stassfurt temperature yesterday

Maximum temperature yesterday: 94 °F (at 2:00 PM)
Minimum temperature yesterday: 70 °F (at 4:00 AM)
Average temperature yesterday: 81 °F

Past Weeks' High & Low Weather Summary

 TemperatureHumidityPressure
High100 °F (Jul 4, 4:00 PM)97% (Jul 6, 2:00 AM)30.25 "Hg (Jul 6, 2:00 AM)
Low48 °F (Jun 21, 4:00 AM)26% (Jul 2, 5:00 PM)29.63 "Hg (Jun 23, 2:00 AM)
Average68 °F63%30.07 "Hg
* Reported Jun 21 3:00 AM — Jul 6 3:00 AM, Stassfurt, Weather by CustomWeather, © 2015

Note: Actual official high and low records may vary slightly from our data, if they occured in-between our weather recording intervals... More about our weather records

Advertising

Stassfurt weather history for previous 24 hours

 ConditionsComfort  
Time TempWeatherWind HumidityBarometerVisibility
3:00 AM
Mon, Jul 6
68 °FLight rain. Overcast.2 mph95%30.00 "Hg5 mi
2:00 AM67 °FLight rain. Overcast.1 mph97%29.98 "Hg2 mi
1:00 AM68 °FOvercast.1 mph93%29.94 "Hg12 mi
12:00 AM69 °FOvercast.1 mph92%29.91 "Hg18 mi
10:00 PM
Sun, Jul 5
72 °FOvercast.1 mph96%29.91 "Hg7 mi
9:00 PM71 °FFog.9 mph86%30.01 "Hg1 mi
8:00 PM89 °FOvercast.2 mph43%29.85 "Hg14 mi
7:00 PM92 °FScattered clouds.2 mph39%29.86 "Hg14 mi
6:00 PM92 °FOvercast.2 mph40%29.89 "Hg17 mi
4:00 PM85 °FThunderstorms. Partly sunny.2 mph56%29.96 "Hg19 mi
3:00 PM89 °FPartly sunny.2 mph44%29.97 "Hg19 mi
2:00 PM94 °FScattered clouds.2 mph33%29.99 "Hg19 mi
1:00 PM91 °FScattered clouds.2 mph40%30.01 "Hg19 mi
12:00 PM88 °FScattered clouds.1 mph45%30.03 "Hg19 mi
10:00 AM83 °FScattered clouds.2 mph54%30.06 "Hg19 mi
9:00 AM78 °FScattered clouds.3 mph64%30.07 "Hg19 mi
8:00 AM76 °FScattered clouds.2 mph72%30.08 "Hg19 mi
7:00 AM72 °FScattered clouds.1 mph78%30.08 "Hg16 mi
4:00 AM70 °FPassing clouds.1 mph82%30.05 "Hg11 mi
3:00 AM73 °FPassing clouds.1 mph74%30.09 "Hg13 mi
Weather by CustomWeather, © 2015

See weather overviewHow to use our weather pages